TimeEDT,TemperatureF,Dew PointF,Humidity,Sea Level PressureIn,VisibilityMPH,Wind Direction,Wind SpeedMPH,Gust SpeedMPH,PrecipitationIn,Events,Conditions,WindDirDegrees,DateUTC
12:56 AM,61.0,57.0,87,30.06,7.0,SE,3.5,-,N/A,,Overcast,140,2012-10-27 04:56:00
1:36 AM,60.8,55.4,82,30.04,7.0,ESE,3.5,-,N/A,,Overcast,120,2012-10-27 05:36:00
1:56 AM,60.1,55.9,86,30.04,7.0,ESE,3.5,-,N/A,,Overcast,120,2012-10-27 05:56:00
2:56 AM,60.1,57.0,90,30.03,7.0,Calm,Calm,-,N/A,,Overcast,0,2012-10-27 06:56:00
3:35 AM,60.8,55.4,82,30.01,8.0,Calm,Calm,-,N/A,,Overcast,0,2012-10-27 07:35:00
3:56 AM,60.1,55.9,86,30.01,8.0,Calm,Calm,-,N/A,,Overcast,0,2012-10-27 07:56:00
4:56 AM,60.1,55.9,86,30.01,8.0,Calm,Calm,-,N/A,,Overcast,0,2012-10-27 08:56:00
5:56 AM,57.9,55.0,90,30.00,6.0,Calm,Calm,-,N/A,,Overcast,0,2012-10-27 09:56:00
6:56 AM,59.0,55.9,90,30.00,5.0,Calm,Calm,-,N/A,,Overcast,0,2012-10-27 10:56:00
7:56 AM,59.0,55.0,87,30.01,5.0,NE,3.5,-,N/A,,Overcast,50,2012-10-27 11:56:00
8:56 AM,60.1,55.9,86,30.01,5.0,East,5.8,-,N/A,,Overcast,80,2012-10-27 12:56:00
9:56 AM,61.0,55.0,81,30.01,8.0,East,4.6,-,N/A,,Overcast,80,2012-10-27 13:56:00
10:56 AM,61.0,54.0,78,30.01,9.0,SE,4.6,-,N/A,,Overcast,130,2012-10-27 14:56:00
11:56 AM,62.1,54.0,75,30.00,9.0,ESE,6.9,-,N/A,,Overcast,110,2012-10-27 15:56:00
12:56 PM,62.6,53.6,72,29.96,9.0,East,10.4,-,N/A,,Overcast,100,2012-10-27 16:56:00
1:56 PM,63.0,54.0,72,29.95,9.0,ESE,6.9,-,N/A,,Overcast,110,2012-10-27 17:56:00
2:38 PM,64.4,53.6,68,29.93,10.0,ENE,4.6,-,N/A,,Overcast,70,2012-10-27 18:38:00
2:56 PM,64.0,54.0,70,29.93,10.0,ESE,5.8,-,N/A,,Overcast,110,2012-10-27 18:56:00
3:27 PM,64.4,53.6,68,29.92,10.0,SE,4.6,-,N/A,,Overcast,130,2012-10-27 19:27:00
3:56 PM,64.0,54.0,70,29.92,10.0,ESE,8.1,-,N/A,,Overcast,110,2012-10-27 19:56:00
4:56 PM,63.0,53.1,70,29.92,10.0,East,5.8,-,N/A,,Overcast,90,2012-10-27 20:56:00
5:56 PM,62.1,53.1,72,29.92,10.0,ENE,3.5,-,N/A,,Overcast,70,2012-10-27 21:56:00
6:56 PM,61.0,53.1,75,29.92,10.0,NE,3.5,-,N/A,,Overcast,50,2012-10-27 22:56:00
7:56 PM,60.1,54.0,80,29.92,10.0,NE,3.5,-,N/A,,Overcast,40,2012-10-27 23:56:00
8:56 PM,59.0,53.1,81,29.91,9.0,NE,4.6,-,N/A,,Overcast,50,2012-10-28 00:56:00
9:56 PM,59.0,53.1,81,29.91,8.0,Calm,Calm,-,N/A,,Overcast,0,2012-10-28 01:56:00
10:56 PM,55.0,52.0,89,29.91,7.0,Calm,Calm,-,N/A,,Overcast,0,2012-10-28 02:56:00
11:56 PM,57.0,52.0,83,29.90,6.0,Calm,Calm,-,N/A,,Haze,0,2012-10-28 03:56:00